Regional Weather Roundup
Issued by NWS

Home | Current Version | Previous Version | Text Only | Print | Product List | Glossary Off
Versions: 1 2 3 4 5 6 7 8 9 10 11 12 13 14 15 16 17 18 19 20 21 22 23 24 25 26 27 28 29 30 31 32 33 34 35 36 37 38 39 40 41 42 43 44 45 46 47 48 49 50

000
ASUS43 KMPX 231101
RWRMN
WEATHER ROUNDUP FOR MINNESOTA
NATIONAL WEATHER SERVICE TWIN CITIES/CHANHASSEN MN
600 AM CDT SAT AUG 23 2014


NOTE: "FAIR" INDICATES FEW OR NO CLOUDS BELOW 12,000 FEET WITH NO
SIGNIFICANT WEATHER AND/OR OBSTRUCTIONS TO VISIBILITY. N/A MEANS
CURRENT SKY AND/OR WEATHER CONDITIONS ARE NOT AVAILABLE.

MNZ060>063-068>070-231200-
   Twin Cities Metro

CITY           SKY/WX    TMP DP  RH WIND       PRES   REMARKS
TWIN CITIES    CLOUDY    70  68  93 VRB6      30.00R
ST PAUL        CLOUDY    70  67  90 NE7       30.00R
CRYSTAL        CLOUDY    69  66  90 N5        29.99R FOG
BLAINE         CLOUDY    70  70 100 NE5       30.00R
LAKEVILLE      FOG       66  66 100 NE5       29.99S VSB 1
EDEN PRAIRIE   CLOUDY    70  67  90 NE7       29.99R
SOUTH ST PAUL  CLOUDY    70  67  91 NE3       29.99R
LAKE ELMO      CLOUDY    68  68 100 NE5       30.01R
$$
MNZ001>005-007-008-013>017-022>024-027-028-231200-
   Northwest Minnesota

CITY           SKY/WX    TMP DP  RH WIND       PRES   REMARKS
BEMIDJI        CLOUDY    66  66 100 E6        30.04S FOG
HALLOCK        CLOUDY    59  57  94 N8        30.08R
ROSEAU         HAZE      63  57  82 N7        30.08F VSB 3/4
WARROAD        FOG       61  57  88 NW3       30.09R VSB 1/4
THIEF RVR FALL CLOUDY    64  63  94 NE9       30.05S
CROOKSTON      DRIZZLE   63  63 100 NE8       30.04F
FOSSTON        CLOUDY    64  64 100 NE7       30.04S
DETROIT LAKES  MOCLDY    68  64  88 CALM      30.04R
MOORHEAD       FOG       64  64 100 N7        30.02S VSB 1
PARK RAPIDS    CLOUDY    67  67 100 SE6       30.04R
MAHNOMEN       CLOUDY    67  66  97 NE7       30.02S
$$
MNZ006-009>011-018-025>026-231200-
   North Central Minnesota

CITY           SKY/WX    TMP DP  RH WIND       PRES   REMARKS
BAUDETTE       FOG       61  60  97 CALM      30.06S VSB 3/4
FLAG ISLAND    CLOUDY    66  64  94 N12       30.07S
INTL FALLS     FOG       58  57  97 CALM      30.06F VSB 1
WASKISH        FOG       64  63  94 CALM      30.05F VSB 1/2
BIG FORK       DRIZZLE   66  64  94 E5        30.06S
LONGVILLE      MOCLDY    63  63 100 CALM      30.04R FOG
GRAND RAPIDS   CLOUDY    63  59  88 E5        30.05S
CRANE LAKE     CLOUDY    61  61 100 CALM      30.09S
ORR            MOCLDY    63  61  94 CALM      30.05S
COOK           CLOUDY    64  63  94 CALM      30.07S
WALKER         CLOUDY    66  65  98 CALM      30.04R
$$
MNZ012-019>021-037-231200-
   Northeast Minnesota

CITY           SKY/WX    TMP DP  RH WIND       PRES   REMARKS
DULUTH         CLOUDY    63  60  90 NE5       30.05S
ELY            CLOUDY    63  61  94 CALM      30.09R
HIBBING        CLOUDY    64  62  93 E5        30.06F FOG
EVELETH        FOG       63  61  94 CALM      30.08S VSB 1/2
DULUTH HARBOR  CLOUDY    63  61  94 NE7       30.05S
TWO HARBORS    MOCLDY    61  55  82 CALM      30.04S
SILVER BAY     PTCLDY    61  61 100 CALM      30.05S
GRAND MARAIS     N/A     65  60  84 N3        30.06R
G MARAIS ARPRT CLOUDY    61  55  82 CALM      30.11R
$$
MNZ029>031-032-039>041-046>048-054>057-064-231200-
   West Central Minnesota

CITY           SKY/WX    TMP DP  RH WIND       PRES   REMARKS
FERGUS FALLS   CLOUDY    70  66  88 E3        30.01S
WHEATON        CLOUDY    64  64 100 NE3       30.01S FOG
MORRIS         CLOUDY    70  68  94 E6        29.99S FOG
ALEXANDRIA     CLOUDY    68  66  93 E10       30.03F
ELBOW LAKE     CLOUDY    68  67  96 E8        30.01R
WADENA         CLOUDY    64  64 100 SE6       30.03S FOG
GLENWOOD       CLOUDY    66  66 100 E7        30.03S
APPLETON       CLOUDY    72  66  83 E5        29.99S
BENSON         CLOUDY    68  66  94 SE6       30.00S
ORTONVILLE     CLOUDY    70  66  88 E3        29.99S
MADISON        CLOUDY    72  70  94 CALM      29.99S FOG
WILLMAR        FAIR      70  66  88 E6        30.02S
$$
MNZ033>034-036-042>043-049>051-058-059-231200-
   Central Minnesota

CITY           SKY/WX    TMP DP  RH WIND       PRES   REMARKS
ST CLOUD       CLOUDY    67  64  90 E3        30.02R
SAUK CENTRE    CLOUDY    65  64  97 NE6       30.03S
PAYNESVILLE    CLOUDY    64  64  99 N5        30.02S
AITKIN         CLOUDY    63  57  82 E5        30.04R HAZE
PINE RIVER     CLOUDY    64  64 100 CALM      30.08R
BRAINERD       CLOUDY    62  62 100 SE3       30.05R FOG
STAPLES        CLOUDY    64  64 100 E3        30.04S
LONG PRAIRIE   CLOUDY    64  63  94 NE3       30.04S
LITTLE FALLS   CLOUDY    61  59  94 CALM      30.04R FOG
LITCHFIELD     CLOUDY    68  68 100 NE6       30.01S
BUFFALO        CLOUDY    66  64  93 CALM      30.02R FOG
MAPLE LAKE     CLOUDY    67  66  97 NE5       30.02R FOG
$$
MNZ037-044-045-052-053-231200-
   East Central Minnesota

CITY           SKY/WX    TMP DP  RH WIND       PRES   REMARKS
PRINCETON      CLOUDY    66  64  94 NE7       30.02S
MORA           CLOUDY    61  59  94 CALM      30.06R FOG
CAMBRIDGE      CLOUDY    66  57  72 N7        30.01R HAZE
RUSH CITY      CLOUDY    64  62  95 NE3       30.03R
MOOSE LAKE     CLOUDY    61  59  94 CALM      30.04S
HINCKLEY       CLOUDY    63  61  94 NE5       30.04R
CLOQUET        CLOUDY    61  59  94 CALM      30.05S
MCGREGOR       MOCLDY    61  59  94 NE3       30.06R
$$
MNZ071>073-080-081-089-090-097-098-231200-
   Southwest Minnesota

CITY           SKY/WX    TMP DP  RH WIND       PRES   REMARKS
MONTEVIDEO     CLOUDY    68  68 100 SE5       30.00S
GRANITE FALLS  CLOUDY    68  67  97 CALM      30.01R
CANBY          LGT RAIN  69  68  96 SE5       30.01R
MARSHALL       CLOUDY    70  66  88 CALM      30.00R
REDWOOD FALLS  CLOUDY    68  66  93 NE5       29.98S FOG
OLIVIA         CLOUDY    70  68  94 CALM      30.00R FOG
PIPESTONE      HVY RAIN  70  66  88 CALM      30.02R
WINDOM         LGT RAIN  68  66  94 E6        29.99S
WORTHINGTON      N/A     70  68  94 S8G17     30.03R THUNDER
JACKSON        CLOUDY    68  64  88 E5        29.98S FOG
TRACY          FOG       68  67  97 NE3       30.00R VSB 1/2
SLAYTON        RAIN      67  67  99 CALM      30.02R
$$
MNZ065>067-074>077-082>085-091>093-231200-
   South Central Minnesota

CITY           SKY/WX    TMP DP  RH WIND       PRES   REMARKS
MANKATO        CLOUDY    70  64  83 NE8       29.98S
NEW ULM        CLOUDY    66  66 100 CALM      29.98R FOG
ST JAMES       CLOUDY    68  66  94 CALM      29.99S FOG
FAIRMONT       CLOUDY    61  61 100 MISG      29.96F VSB 3/4
GLENCOE        CLOUDY    68  65  91 N5        30.00S FOG
FARIBAULT      HAZE      72  64  78 NE3       29.99R VSB 3/4
OWATONNA       FOG       68  66  94 E5        29.98S VSB 3/4
WASECA         CLOUDY    66  63  88 E5        29.99F FOG
ALBERT LEA     CLOUDY    68  66  94 N3        29.97S FOG
$$
MNZ078>079-086>088-094>096-231200-
   Southeast Minnesota

CITY           SKY/WX    TMP DP  RH WIND       PRES   REMARKS
ROCHESTER      FOG       68  67  96 E6        29.98F VSB 1/4
RED WING       CLOUDY    72  68  88 CALM      29.99R
STANTON        CLOUDY    70  68  93 NE3       29.98S FOG
DODGE CENTER   DRZL/FOG  68  66  94 NE3       29.98S VSB 1/4
WINONA         CLOUDY    72  70  94 CALM      29.99R FOG
AUSTIN         FOG       68  66  94 NE3       29.97R VSB 3/4
PRESTON        FOG       68  68 100 NE5       29.98F VSB 1/4
$$
ABBREVIATIONS USED IN REMARKS
   TC - TEMPERATURES IN CELSIUS
  WCI - WIND CHILL INDEX
   HX - HEAT INDEX
  VSB - VISIBILITY
$$


USA.gov is the U.S. government's official web portal to all federal, state and local government web resources and services.